Wind_Speed
6 2 3 2 3 3 4 1 2 2 1 4 5 5 6 4 5 9 8 10 10 17 16 15 16 15 15 16 16 17 17 17 17 18 19 18 17 14
7 5 5 4 5 4 1 2 3 4 3 3 5 4 4 4 8 7 5 6 11 14 15 15 13 12 12 13 13 14 15 15 15 16 17 17 17 18
8 8 7 8 7 7 6 6 7 7 6 6 5 5 7 7 5 4 6 8 11 12 13 12 12 11 11 11 12 12 12 13 13 13 14 14 14 14
9 10 9 10 11 9 7 7 7 8 7 6 5 6 7 6 4 6 7 10 10 8 6 8 9 7 8 10 10 11 13 15 14 14 12 12 12 10
12 13 13 12 11 11 10 10 8 10 9 7 6 6 4 5 7 9 8 9 8 8 7 7 6 7 7 9 11 13 13 13 15 16 16 15 15 14
15 15 17 18 16 14 13 12 12 12 11 10 7 9 9 8 8 9 10 8 8 7 10 10 9 11 12 12 12 12 13 14 16 18 17 16 15 14
19 20 21 21 19 18 17 17 17 15 15 14 12 12 11 12 12 13 14 12 13 11 10 13 16 14 14 15 15 14 16 16 16 19 20 20 21 18
19 22 25 25 23 22 20 22 22 20 21 18 17 17 15 17 17 16 17 20 18 17 16 18 18 17 19 19 19 18 18 19 19 19 17 22 23 23
24 25 27 26 24 24 25 23 23 24 24 23 22 22 21 23 24 23 22 22 22 23 22 23 23 22 25 24 23 24 25 24 23 21 21 25 26 24
33 32 33 32 30 28 28 28 27 27 27 26 27 25 26 27 30 29 28 27 25 25 26 28 32 28 28 28 29 29 29 27 26 25 24 25 27 28
34 35 36 38 38 36 34 33 32 32 33 32 31 26 26 28 27 26 31 33 31 28 33 30 34 34 32 30 31 32 31 31 31 31 30 28 29 31
38 36 35 37 38 39 40 39 38 37 37 35 35 33 30 30 31 30 28 28 30 28 32 37 37 34 36 38 37 37 36 35 34 33 33 32 31 31
31 34 32 34 37 39 40 38 36 38 37 34 27 27 27 27 28 27 27 27 27 31 31 27 29 32 34 39 37 38 35 37 36 37 36 36 36 36
31 30 30 29 31 29 29 29 28 25 24 21 20 20 21 25 27 27 28 28 28 28 30 32 33 35 36 36 39 41 38 37 37 37 37 38 37 38
31 28 26 28 26 27 28 29 30 30 27 25 26 27 29 29 31 33 33 33 32 30 30 32 34 34 35 37 36 38 42 38 35 37 37 37 38 39
29 33 35 34 32 31 33 33 31 30 29 29 31 34 35 36 37 38 40 41 42 43 45 45 44 42 41 41 39 40 40 41 42 40 39 41 42 43
36 37 38 38 39 36 34 36 36 36 37 37 38 40 40 42 44 44 43 43 44 45 46 47 48 48 48 47 49 47 48 46 46 46 45 44 47 49
43 40 39 40 42 43 41 42 41 41 42 44 45 46 46 47 46 46 45 46 45 45 47 49 50 51 51 54 52 52 51 51 52 53 51 48 47 48
46 46 45 47 48 48 49 50 50 50 51 51 52 53 52 53 54 53 51 50 51 51 52 52 52 54 55 55 58 60 57 55 54 55 55 54 54 54
52 51 53 54 54 54 55 57 58 59 59 60 61 59 57 57 60 61 62 60 58 59 59 59 60 60 62 62 60 62 64 64 64 65 65 65 67 69
55 59 60 60 60 60 61 63 65 66 67 69 68 66 65 65 68 69 68 62 62 63 65 64 66 68 69 69 69 70 72 73 74 75 76 75 75 77
65 66 65 60 64 67 68 69 71 74 74 75 74 74 73 70 69 69 69 69 68 68 69 70 70 72 73 72 73 72 72 73 76 79 81 84 86 87
67 65 68 72 72 73 73 72 76 80 80 79 79 80 73 65 63 64 70 74 70 67 69 71 73 71 70 71 73 75 78 80 81 82 84 89 92 93
Wind_Direction
238 204 232 239 244 152 181 200 267 86 15 345 7 30 37 19 30 42 37 25 27 55 50 42 28 24 30 27 28 27 27 28 26 23 23 20 14 1
251 254 275 269 264 275 286 261 313 5 355 10 40 12 43 24 42 39 52 28 42 49 46 37 34 27 22 27 25 21 18 18 20 22 22 17 15 11
268 274 274 282 287 288 299 313 330 328 331 350 21 347 6 19 28 13 24 30 45 37 37 44 33 24 28 34 30 21 17 23 19 16 15 15 15 11
269 275 274 275 276 287 293 288 298 298 315 335 339 330 336 336 341 352 26 8 20 28 9 26 35 35 35 39 41 37 26 20 21 20 13 4 2 5
277 276 275 272 278 277 276 279 282 294 300 307 291 286 277 306 331 334 346 357 348 338 335 346 332 335 353 11 1 3 3 5 359 1 2 2 359 352
266 275 278 279 278 274 271 277 280 276 280 286 290 294 305 306 301 308 309 322 314 297 293 298 299 307 319 328 328 334 333 335 339 337 344 345 343 338
260 264 269 272 273 277 279 279 272 272 273 278 282 282 286 289 293 296 297 297 289 286 264 270 276 282 283 287 289 306 316 320 321 322 329 331 327 327
267 268 267 268 269 272 277 277 279 281 283 283 283 284 284 285 281 276 277 281 276 276 279 276 278 278 279 282 292 299 291 297 307 315 323 314 318 317
262 265 269 269 269 271 270 271 274 278 280 285 287 286 284 279 276 274 271 268 272 279 277 276 274 275 279 284 285 284 287 295 297 298 300 304 308 306
265 261 263 267 266 266 269 272 274 273 275 277 278 281 283 284 280 275 273 269 268 274 274 278 279 276 275 277 278 281 286 289 288 289 291 294 296 296
264 264 262 265 269 270 271 272 271 271 274 275 277 278 278 285 288 283 275 277 274 267 270 269 272 275 276 277 278 280 280 281 284 288 289 288 290 294
264 258 259 266 264 266 266 267 269 275 280 277 277 274 278 280 279 278 285 292 283 273 269 268 269 278 283 282 282 280 278 278 279 281 283 285 287 286
262 263 262 268 267 265 264 268 266 273 274 271 266 267 274 277 278 279 286 291 289 281 278 280 277 277 279 283 281 282 279 277 280 282 282 282 281 280
262 261 263 263 263 261 259 259 263 261 265 264 270 270 273 280 284 284 282 284 283 281 280 280 279 280 282 282 283 284 282 282 282 281 281 282 280 279
258 252 254 258 255 255 254 258 264 262 262 263 267 269 270 273 276 278 280 282 283 282 280 277 276 276 278 277 278 280 285 285 282 283 283 284 284 285
259 260 264 261 250 249 251 253 253 253 254 260 268 274 279 286 290 289 288 283 281 284 287 288 287 284 282 280 279 277 275 276 281 278 278 279 278 277
257 258 261 263 263 257 253 252 253 257 261 270 277 284 286 291 294 293 291 290 290 287 283 281 281 282 282 280 280 279 279 277 274 272 272 273 276 278
263 263 261 262 261 260 257 256 259 265 270 274 279 280 283 288 291 293 294 294 292 290 289 288 288 288 286 284 281 279 278 276 276 276 275 274 274 275
263 264 264 263 261 260 259 259 263 267 271 274 277 279 283 288 289 289 290 290 292 289 287 284 282 284 284 285 285 285 285 284 283 281 278 275 276 279
262 263 263 263 264 265 265 266 267 268 271 273 276 280 282 283 285 286 288 286 286 288 287 284 283 284 282 281 282 282 280 281 281 281 281 281 279 279
261 262 263 264 264 264 265 267 269 270 272 274 276 278 278 279 280 284 282 281 283 282 281 279 279 280 279 278 277 278 280 279 278 277 278 280 280 281
263 265 261 269 270 267 268 269 273 273 272 273 275 275 275 275 276 278 280 280 281 280 278 275 276 277 278 279 279 280 281 283 283 283 281 280 281 281
264 269 265 264 267 266 270 273 271 269 272 271 273 271 272 275 275 275 277 280 280 278 278 278 277 277 278 280 282 284 285 285 284 286 288 288 286 285
Height
5949 5952 5953 5952 5953 5954 5953 5952 5951 5950 5948 5946 5944 5943 5941 5940 5938 5935 5936 5937 5936 5925 5927 5928 5929 5929 5927 5926 5923 5921 5920 5918 5916 5914 5911 5909 5907 5906
5947 5948 5947 5949 5949 5948 5950 5951 5949 5947 5947 5946 5945 5942 5942 5940 5938 5937 5937 5936 5931 5928 5928 5929 5930 5930 5929 5927 5925 5924 5922 5921 5919 5916 5914 5912 5911 5908
5945 5947 5947 5946 5946 5945 5945 5944 5944 5944 5944 5944 5943 5940 5941 5940 5939 5939 5938 5935 5932 5930 5930 5930 5931 5931 5929 5927 5925 5924 5923 5921 5919 5917 5915 5914 5912 5910
5945 5944 5945 5945 5944 5943 5942 5942 5943 5942 5941 5941 5941 5941 5941 5941 5940 5939 5935 5934 5931 5931 5931 5931 5932 5931 5930 5928 5926 5925 5924 5921 5919 5917 5915 5914 5912 5910
5943 5942 5943 5943 5943 5942 5941 5941 5941 5940 5940 5942 5942 5941 5940 5938 5936 5935 5934 5933 5931 5931 5931 5932 5932 5931 5930 5928 5925 5924 5923 5921 5919 5917 5915 5914 5913 5911
5940 5940 5939 5938 5939 5939 5938 5938 5939 5938 5939 5939 5939 5937 5936 5936 5935 5934 5931 5931 5930 5930 5930 5930 5930 5929 5928 5927 5924 5923 5921 5919 5918 5916 5913 5911 5910 5909
5937 5937 5936 5935 5936 5935 5934 5934 5934 5935 5935 5935 5935 5935 5935 5934 5932 5930 5929 5929 5928 5929 5930 5929 5927 5927 5926 5924 5922 5921 5918 5917 5916 5915 5913 5910 5906 5904
5933 5932 5932 5932 5933 5932 5931 5930 5929 5929 5930 5931 5931 5931 5931 5930 5929 5929 5929 5927 5926 5926 5926 5925 5925 5924 5922 5921 5918 5917 5913 5913 5913 5912 5909 5907 5904 5902
5927 5927 5926 5927 5927 5926 5926 5925 5925 5924 5925 5927 5927 5926 5925 5923 5924 5924 5924 5923 5922 5922 5922 5919 5918 5918 5915 5915 5913 5911 5909 5910 5909 5908 5906 5903 5900 5898
5920 5921 5920 5921 5921 5921 5920 5920 5920 5919 5919 5920 5920 5921 5919 5917 5917 5916 5915 5916 5919 5918 5915 5912 5908 5910 5909 5909 5906 5905 5903 5904 5902 5901 5899 5896 5894 5891
5911 5912 5913 5914 5914 5914 5914 5913 5913 5912 5913 5913 5912 5913 5913 5910 5909 5908 5907 5908 5910 5911 5907 5906 5899 5899 5901 5901 5899 5898 5897 5896 5895 5893 5892 5890 5887 5884
5901 5901 5903 5904 5904 5905 5904 5903 5903 5902 5903 5904 5905 5904 5904 5902 5900 5898 5899 5900 5897 5898 5898 5896 5895 5893 5890 5889 5889 5888 5886 5885 5885 5884 5882 5881 5880 5877
5892 5893 5894 5895 5895 5894 5893 5893 5894 5893 5892 5893 5895 5895 5895 5894 5892 5892 5891 5889 5887 5886 5886 5887 5887 5887 5884 5877 5878 5877 5877 5874 5874 5873 5872 5871 5870 5867
5884 5884 5884 5885 5886 5885 5885 5886 5886 5886 5885 5884 5885 5886 5886 5885 5884 5886 5884 5881 5879 5878 5878 5878 5876 5875 5875 5873 5869 5864 5866 5867 5864 5861 5859 5858 5858 5858
5878 5876 5876 5877 5877 5878 5878 5879 5880 5878 5877 5878 5878 5877 5876 5874 5872 5873 5874 5874 5873 5872 5869 5867 5866 5863 5863 5862 5861 5860 5853 5853 5855 5853 5849 5847 5845 5844
5871 5871 5871 5870 5868 5868 5869 5869 5868 5869 5868 5867 5866 5867 5867 5866 5863 5861 5861 5860 5860 5860 5860 5857 5855 5853 5850 5850 5848 5847 5847 5844 5840 5839 5840 5837 5834 5831
5862 5861 5862 5861 5862 5860 5859 5859 5858 5858 5858 5857 5857 5856 5855 5853 5852 5851 5849 5847 5844 5843 5843 5843 5841 5838 5837 5835 5835 5832 5832 5830 5830 5828 5825 5822 5819 5817
5851 5851 5850 5850 5850 5849 5849 5848 5848 5848 5847 5844 5844 5843 5842 5841 5838 5837 5835 5835 5832 5830 5829 5826 5823 5821 5819 5816 5817 5816 5815 5814 5812 5810 5808 5808 5805 5801
5837 5838 5838 5838 5837 5836 5836 5835 5835 5834 5832 5830 5830 5830 5829 5826 5824 5821 5820 5819 5817 5816 5815 5812 5810 5808 5805 5802 5796 5793 5793 5792 5792 5791 5790 5788 5787 5785
5822 5822 5822 5822 5822 5822 5822 5821 5821 5819 5816 5815 5815 5814 5812 5810 5808 5806 5804 5802 5801 5799 5797 5795 5794 5792 5790 5788 5783 5777 5776 5775 5772 5769 5769 5766 5764 5761
5805 5805 5805 5804 5805 5805 5805 5804 5802 5800 5799 5798 5796 5794 5793 5791 5789 5787 5786 5784 5782 5780 5779 5777 5775 5773 5770 5767 5765 5759 5753 5752 5750 5747 5745 5743 5741 5736
5787 5786 5785 5783 5784 5786 5787 5785 5782 5781 5781 5780 5779 5777 5775 5773 5770 5768 5766 5765 5763 5760 5758 5757 5753 5750 5748 5744 5741 5739 5735 5730 5725 5721 5718 5715 5712 5710
5766 5765 5765 5766 5763 5763 5766 5765 5761 5759 5760 5759 5758 5756 5754 5752 5748 5746 5745 5744 5742 5740 5738 5735 5733 5729 5726 5722 5718 5715 5712 5709 5705 5699 5691 5686 5681 5675